SCP
0 0 0 -0 -0 -0 -0 -0 -0 0 0 -0 -0 -0 0 0 -0 0 -0 -0 -0 -0 -0 -0 -0 -0 -0 -0 -0 -0 -0 -0 -0 -0 -0 -0 -0 -0 -0 0 0 0 0
0 0 0 -0 -0 -0 -0 -0 -0 0 0 -0 -0 -0 0 0 0 0 0 0 -0 -0 -0 -0 -0 -0 -0 -0 -0 -0 -0 -0 -0 -0 -0 -0 0 0 0 0 0 0 0
0 -0 -0 0 -0 -0 0 -0 -0 0 0 0 -0 -0 -0 0 0 0 0 0 0 0 0 0 -0 -0 -0 -0 -0 -0 -0 -0 0 0 0 0 0 0 0 0 0 0 0
-0 -0 0 -0 -0 -0 0 0 0 0 0 0 0 -0 0 0 0 0 0 0 0 0 0 0 0 0 -0 -0 -0 0 0 0 0 0 0 0 0 0 0 0 0 0 0
-0 -0 -0 -0 0 -0 0 0 0 0 0 0 0 0 0 0 0 0 0 0 0 0 0 -0 0 0 -0 -0 -0 0 0 0 0 0 0 0 0 0 0 0 0 0 0
-0 -0 -0 -0 0 0 0 0 0 0 0 0 0 0 0 0 0 0 0 0 0 0 0 0 0 0 0 0 -0 0 0 0 0 0 0 0 0 0 0 0 0 0 0
-0 -0 -0 0 0 0 0 0 0 0 0 0 0 0 0 0 0 0 0 0 0 0 0 0 0 0 0 0 0 0 0 0 0 0 0 0 0 0 0 0 0 0 0
0 0 0 0 0 0 0 0 0 0 0 0 0 0 0 0 0 0 0 0 0 0 0 0 0 0 0 0 0 0 0 0 0 0 0 0 0 0 0 0 0 0 0
1 1 1 0 0 0 0 0 0 0 0 0 0 0 0 0 0 0 0 0 0 0 0 0 0 0 0 0 0 0 0 0 0 0 0 0 0 0 0 0 0 0 0
1 1 2 1 0 0 0 0 0 0 0 0 0 0 0 0 0 0 0 0 0 0 0 0 0 0 0 0 0 0 0 0 0 0 0 0 0 0 0 0 0 0 0
2 2 3 2 2 1 1 1 0 0 0 0 0 0 0 0 0 0 0 0 0 0 0 0 0 0 0 0 0 0 0 0 0 0 0 0 0 0 0 0 0 0 0
1 2 3 5 3 3 1 1 1 0 0 0 0 0 0 0 0 0 0 0 0 0 0 0 0 0 0 0 0 0 0 0 0 0 0 0 0 0 0 0 0 0 0
0 1 3 5 5 4 3 2 2 0 0 0 0 0 0 0 0 0 0 0 0 0 0 0 0 0 0 0 0 0 0 0 0 0 0 0 0 0 0 0 0 0 0
0 0 1 4 5 5 3 2 2 1 0 0 0 0 0 0 0 0 0 0 0 0 0 0 0 0 0 0 0 0 0 0 0 0 0 0 0 0 0 0 0 0 0
0 0 0 3 4 4 4 3 3 1 0 0 0 0 0 0 0 0 0 0 0 0 0 0 0 0 0 0 0 0 0 0 0 0 0 0 0 0 0 0 0 0 0
0 0 0 0 3 4 4 3 3 2 1 0 0 0 0 0 0 0 0 0 0 0 0 0 0 0 0 0 0 0 0 0 0 0 0 0 0 0 0 0 0 0 -0
0 1 1 0 0 2 4 4 3 2 2 1 0 0 0 0 0 0 0 0 0 0 0 0 0 0 0 0 0 0 0 0 0 0 0 0 0 0 0 0 0 -0 -0
0 0 0 1 1 1 1 3 2 3 2 2 1 0 0 0 0 0 0 0 0 0 0 0 0 0 0 0 0 0 0 0 0 0 0 0 0 0 0 0 0 0 -0
0 0 0 0 0 0 0 1 1 2 3 2 1 1 0 0 0 0 0 0 0 0 0 0 0 0 0 0 0 0 0 0 0 0 0 0 0 0 0 0 0 0 0
0 0 0 0 0 0 0 0 0 1 1 2 1 1 0 0 0 0 0 0 0 0 0 0 0 0 0 0 0 0 0 0 0 0 0 0 0 0 0 0 0 0 0
0 0 0 0 0 0 0 0 0 0 0 1 2 1 1 0 0 0 0 0 0 0 0 0 0 0 0 0 0 0 0 0 0 0 0 0 0 0 0 0 0 0 0
0 0 0 0 0 0 0 0 0 0 0 0 0 2 1 0 0 0 0 0 0 0 0 0 0 0 0 0 0 0 0 0 0 0 0 0 0 0 0 0 0 0 0
0 0 0 0 0 0 0 0 0 0 0 0 0 0 1 1 0 0 0 0 0 0 0 0 0 0 0 0 0 0 0 0 0 0 0 0 0 0 0 0 0 0 0
0 0 0 0 0 0 0 0 0 0 0 0 0 0 0 0 0 0 0 0 0 0 0 0 0 0 0 0 0 0 0 0 0 0 0 0 0 0 0 0 0 0 0
0 0 0 0 0 0 0 0 0 0 0 0 0 0 0 0 0 0 0 0 0 0 0 0 0 0 0 0 0 0 0 0 0 0 0 0 0 0 0 0 0 0 0
0 0 0 0 0 0 0 0 0 0 0 0 0 0 0 0 0 0 0 0 0 0 0 0 0 0 0 0 0 0 0 0 0 0 0 0 0 0 0 0 0 0 0
Wind_Speed_500mb
18 17 17 19 29 25 26 24 27 19 17 11 22 20 8 6 10 10 17 21 25 24 26 27 24 27 28 27 24 24 23 20 19 17 17 16 16 17 16 10 8 6 7
17 20 15 23 31 24 21 22 30 21 16 22 23 13 6 4 3 4 10 15 17 19 24 21 26 24 27 26 26 27 23 21 21 19 19 17 17 21 21 23 22 19 16
31 28 27 27 34 28 22 27 32 33 22 23 22 18 18 15 12 7 3 6 9 12 16 19 22 21 25 23 29 26 23 22 20 17 18 16 17 19 21 22 19 20 20
34 23 25 28 33 29 27 31 36 40 36 34 30 22 26 26 20 14 7 5 4 7 11 12 14 17 19 19 26 25 26 22 17 15 14 17 18 20 19 20 22 23 24
37 30 29 28 34 35 29 32 38 44 41 38 36 29 32 32 25 20 13 14 8 4 2 4 6 9 19 20 20 27 26 23 18 13 12 14 15 19 20 21 22 23 24
45 43 43 35 40 37 44 43 43 44 46 41 38 35 36 35 31 28 20 20 15 12 7 5 2 4 4 13 16 20 20 26 18 11 11 10 15 16 17 18 18 19 19
58 50 48 50 49 44 47 54 57 57 57 50 46 41 41 36 34 30 30 27 24 18 18 14 12 8 8 7 12 15 17 21 15 8 7 8 12 12 13 15 15 17 18
57 56 54 55 59 56 51 54 58 59 58 56 61 56 47 38 42 41 40 36 32 26 27 26 21 15 15 16 17 17 13 17 15 4 3 5 7 8 9 11 13 15 17
60 64 62 62 57 63 65 60 60 61 66 64 69 57 36 38 52 52 51 47 42 41 33 34 33 27 22 23 20 18 13 16 16 5 2 2 2 3 6 9 10 11 14
68 66 71 72 69 66 69 71 66 65 70 75 73 79 69 44 39 30 56 54 49 50 46 43 44 38 30 28 25 19 14 12 14 9 9 6 5 3 4 5 7 12 17
79 81 73 77 81 81 79 74 74 76 80 81 88 86 83 71 49 43 48 66 54 52 57 53 50 47 42 33 30 23 18 16 15 13 11 10 9 6 3 3 8 14 19
76 81 85 88 89 90 86 86 79 82 86 83 85 94 98 90 81 69 58 69 69 59 65 62 61 55 49 40 34 30 22 22 18 18 18 17 14 9 3 4 8 12 15
81 87 84 95 101 101 99 99 96 91 90 93 89 88 97 105 99 80 67 62 65 64 70 68 67 64 56 49 41 37 30 27 21 21 20 18 13 8 5 2 4 8 11
90 92 92 95 100 103 107 106 102 106 97 98 99 97 91 99 105 97 90 80 60 68 75 76 75 73 65 57 48 41 37 32 26 24 23 21 16 12 7 3 2 5 9
66 68 85 101 101 95 96 109 112 111 111 108 105 109 106 93 101 108 106 99 81 66 80 79 77 79 72 67 59 50 44 35 32 29 29 26 20 15 9 6 2 4 6
40 55 64 64 81 98 99 96 104 109 115 122 120 118 114 109 102 108 112 109 105 89 80 90 89 86 79 76 66 57 49 41 36 34 33 27 23 17 13 10 2 6 6
43 44 51 60 65 71 85 94 100 105 110 119 128 124 115 103 117 114 115 112 111 96 87 76 88 88 84 82 74 66 57 50 39 38 37 30 25 21 17 11 7 8 10
55 56 54 48 51 57 65 79 89 100 106 115 124 125 120 114 137 124 120 125 120 107 95 88 83 89 94 90 81 71 66 54 46 43 42 33 26 22 17 13 9 3 10
66 67 67 65 64 62 61 69 71 86 102 111 114 119 122 114 141 145 136 133 134 117 101 97 92 91 96 92 90 78 71 58 46 45 46 37 27 23 19 13 7 4 7
67 69 75 73 70 71 74 76 76 73 79 102 115 112 117 121 122 129 135 143 136 123 108 109 101 93 98 96 92 89 81 63 54 53 54 45 37 30 27 24 24 21 17
60 71 77 76 76 77 78 75 73 76 78 71 111 118 119 118 119 123 123 127 137 127 117 116 111 100 100 105 111 100 86 69 66 59 56 49 46 39 36 31 30 24 20
66 68 68 72 79 86 85 77 71 67 75 80 81 104 125 125 119 119 127 114 121 132 131 125 121 121 114 111 105 106 96 79 74 64 52 55 50 41 35 31 29 23 20
77 68 62 70 71 72 80 78 72 73 74 78 86 96 94 127 127 126 114 125 120 115 133 135 139 138 125 116 108 111 104 82 83 66 67 61 50 44 37 31 29 26 19
69 77 87 80 79 79 75 77 81 82 78 77 78 81 91 94 128 133 124 125 122 118 127 131 143 142 128 117 115 108 103 79 72 64 63 64 51 49 40 37 32 26 23
81 81 78 81 84 89 84 86 87 77 77 77 76 77 77 87 97 114 122 130 135 134 121 126 136 131 119 114 112 105 99 85 83 73 65 70 50 52 42 38 30 27 25
81 81 83 78 78 84 84 81 75 71 72 77 80 78 71 73 88 103 119 119 118 116 112 125 129 113 106 108 114 101 91 92 92 69 78 64 53 54 40 36 33 30 28
Wind_Direction_500mb
165 166 188 172 167 160 157 155 150 177 181 174 174 186 161 108 66 37 63 74 68 62 54 59 55 56 57 57 55 56 58 58 63 63 64 63 67 66 62 55 48 38 17
193 194 190 195 179 174 176 174 168 189 184 165 173 179 211 202 314 19 52 73 69 65 61 59 53 58 52 54 50 54 55 56 56 56 63 67 70 76 66 64 65 61 50
199 194 185 200 195 184 197 187 174 176 206 190 216 224 238 241 254 280 346 91 91 84 68 61 51 48 48 59 52 52 47 48 52 50 57 66 66 65 71 77 66 60 51
219 214 193 192 194 193 198 195 183 192 208 224 225 237 238 230 239 246 244 190 134 100 64 51 58 46 42 52 49 51 46 48 56 55 60 65 70 77 76 70 67 60 53
223 225 217 214 212 211 212 214 191 205 216 213 240 249 229 238 242 238 230 218 220 188 106 48 36 32 17 18 30 37 38 35 38 47 60 71 74 75 78 76 66 58 54
220 234 241 234 229 220 217 221 215 222 224 220 232 242 229 221 229 255 248 233 232 238 235 266 283 211 352 360 2 22 20 18 22 34 64 82 83 83 81 71 58 51 47
228 232 238 242 228 232 224 225 227 221 218 219 215 215 218 226 231 236 244 237 242 245 238 239 263 273 278 305 328 356 8 8 15 30 78 92 88 89 78 62 51 47 38
230 236 237 239 233 235 236 233 229 220 220 221 214 204 192 213 229 230 232 231 242 239 242 235 244 247 276 291 300 325 349 356 2 26 140 120 99 73 62 61 54 39 30
235 240 244 243 246 242 244 243 239 232 223 220 221 213 194 212 217 226 232 230 231 233 236 241 237 238 254 276 280 302 325 339 336 308 252 132 81 79 61 60 48 34 30
234 238 243 246 246 249 248 245 245 244 233 228 222 225 233 232 200 207 227 228 231 238 236 241 238 235 241 267 267 274 299 310 312 266 233 208 208 180 89 56 47 41 29
241 243 246 245 246 247 252 251 247 245 239 231 231 229 228 234 233 215 213 217 223 232 242 241 244 238 235 246 257 264 287 291 299 265 239 218 212 198 169 83 54 33 25
254 250 250 251 250 245 253 256 255 253 251 241 238 237 236 232 234 233 226 224 223 243 232 232 238 240 240 244 249 251 263 271 283 256 234 221 207 199 162 84 45 25 16
260 256 253 254 254 251 253 259 259 259 254 251 244 243 242 243 242 241 232 223 223 231 229 230 232 238 238 239 243 254 254 260 270 248 230 219 207 197 166 89 18 10 13
265 264 264 262 259 257 255 255 257 260 260 258 253 248 249 247 244 239 241 229 227 221 226 228 227 230 233 237 244 249 249 253 263 249 228 215 205 197 192 221 327 1 10
275 271 269 264 265 265 259 256 255 258 261 260 259 254 248 250 249 245 244 242 232 227 225 225 228 228 229 232 235 240 245 250 256 243 224 208 200 197 203 216 233 32 38
298 285 271 268 270 266 264 262 260 256 256 259 260 258 254 247 248 247 243 243 243 241 229 234 231 234 229 228 230 238 240 244 248 235 222 209 200 198 204 206 157 80 51
297 289 289 280 269 271 272 265 262 261 257 257 261 258 258 261 256 249 246 240 238 239 233 233 232 232 227 225 222 230 231 240 243 227 216 206 201 198 200 204 169 78 38
304 300 296 290 282 277 276 278 271 268 264 260 257 259 255 243 252 250 248 242 238 238 238 233 230 227 223 225 225 229 230 233 236 226 214 205 203 199 199 207 182 88 28
305 302 301 302 299 292 280 272 275 273 271 268 264 262 260 251 245 249 247 244 240 236 236 231 233 230 222 217 219 223 229 230 230 221 216 212 207 202 214 226 243 275 299
301 302 303 305 306 305 302 294 287 282 279 267 263 265 264 259 258 251 246 239 239 235 230 229 233 230 223 219 217 218 216 221 226 220 211 212 215 217 218 233 253 263 268
292 296 299 300 301 305 308 307 298 288 285 286 264 264 265 264 262 259 251 243 237 234 227 224 227 223 217 212 211 215 219 223 225 218 216 219 216 219 221 230 244 255 264
288 288 288 292 296 300 304 306 299 294 286 289 281 264 259 258 263 260 257 250 246 234 225 219 221 221 223 220 213 215 213 213 214 214 209 224 223 224 225 234 236 250 263
288 289 291 287 290 294 298 301 304 302 294 289 284 278 272 255 259 260 258 249 240 239 232 229 221 224 225 222 218 213 213 217 218 212 210 214 217 227 235 236 235 245 265
308 300 286 288 290 287 293 304 305 301 296 291 291 282 275 269 254 253 256 248 240 236 230 225 231 230 230 230 228 233 220 222 216 207 218 210 213 228 240 234 242 241 262
310 309 303 293 282 284 289 296 302 298 296 296 296 290 281 271 264 249 249 244 241 235 230 230 227 228 230 234 229 216 208 206 196 197 197 217 213 225 228 230 241 242 251
308 309 305 301 292 288 290 294 296 297 296 300 299 299 285 280 268 259 240 232 235 234 229 222 219 220 221 228 229 229 218 201 189 193 210 213 214 211 215 226 231 241 251
Wind_Speed_850mb
18 17 17 19 29 25 26 24 27 19 17 11 22 20 8 6 10 10 17 21 25 24 26 27 24 27 28 27 24 24 23 20 19 17 17 16 16 17 16 10 8 6 7
17 20 15 23 31 24 21 22 30 21 16 22 23 13 6 4 3 4 10 15 17 19 24 21 26 24 27 26 26 27 23 21 21 19 19 17 17 21 21 23 22 19 16
31 28 27 27 34 28 22 27 32 33 22 23 22 18 18 15 12 7 3 6 9 12 16 19 22 21 25 23 29 26 23 22 20 17 18 16 17 19 21 22 19 20 20
34 23 25 28 33 29 27 31 36 40 36 34 30 22 26 26 20 14 7 5 4 7 11 12 14 17 19 19 26 25 26 22 17 15 14 17 18 20 19 20 22 23 24
37 30 29 28 34 35 29 32 38 44 41 38 36 29 32 32 25 20 13 14 8 4 2 4 6 9 19 20 20 27 26 23 18 13 12 14 15 19 20 21 22 23 24
45 43 43 35 40 37 44 43 43 44 46 41 38 35 36 35 31 28 20 20 15 12 7 5 2 4 4 13 16 20 20 26 18 11 11 10 15 16 17 18 18 19 19
58 50 48 50 49 44 47 54 57 57 57 50 46 41 41 36 34 30 30 27 24 18 18 14 12 8 8 7 12 15 17 21 15 8 7 8 12 12 13 15 15 17 18
57 56 54 55 59 56 51 54 58 59 58 56 61 56 47 38 42 41 40 36 32 26 27 26 21 15 15 16 17 17 13 17 15 4 3 5 7 8 9 11 13 15 17
60 64 62 62 57 63 65 60 60 61 66 64 69 57 36 38 52 52 51 47 42 41 33 34 33 27 22 23 20 18 13 16 16 5 2 2 2 3 6 9 10 11 14
68 66 71 72 69 66 69 71 66 65 70 75 73 79 69 44 39 30 56 54 49 50 46 43 44 38 30 28 25 19 14 12 14 9 9 6 5 3 4 5 7 12 17
79 81 73 77 81 81 79 74 74 76 80 81 88 86 83 71 49 43 48 66 54 52 57 53 50 47 42 33 30 23 18 16 15 13 11 10 9 6 3 3 8 14 19
76 81 85 88 89 90 86 86 79 82 86 83 85 94 98 90 81 69 58 69 69 59 65 62 61 55 49 40 34 30 22 22 18 18 18 17 14 9 3 4 8 12 15
81 87 84 95 101 101 99 99 96 91 90 93 89 88 97 105 99 80 67 62 65 64 70 68 67 64 56 49 41 37 30 27 21 21 20 18 13 8 5 2 4 8 11
90 92 92 95 100 103 107 106 102 106 97 98 99 97 91 99 105 97 90 80 60 68 75 76 75 73 65 57 48 41 37 32 26 24 23 21 16 12 7 3 2 5 9
66 68 85 101 101 95 96 109 112 111 111 108 105 109 106 93 101 108 106 99 81 66 80 79 77 79 72 67 59 50 44 35 32 29 29 26 20 15 9 6 2 4 6
40 55 64 64 81 98 99 96 104 109 115 122 120 118 114 109 102 108 112 109 105 89 80 90 89 86 79 76 66 57 49 41 36 34 33 27 23 17 13 10 2 6 6
43 44 51 60 65 71 85 94 100 105 110 119 128 124 115 103 117 114 115 112 111 96 87 76 88 88 84 82 74 66 57 50 39 38 37 30 25 21 17 11 7 8 10
55 56 54 48 51 57 65 79 89 100 106 115 124 125 120 114 137 124 120 125 120 107 95 88 83 89 94 90 81 71 66 54 46 43 42 33 26 22 17 13 9 3 10
66 67 67 65 64 62 61 69 71 86 102 111 114 119 122 114 141 145 136 133 134 117 101 97 92 91 96 92 90 78 71 58 46 45 46 37 27 23 19 13 7 4 7
67 69 75 73 70 71 74 76 76 73 79 102 115 112 117 121 122 129 135 143 136 123 108 109 101 93 98 96 92 89 81 63 54 53 54 45 37 30 27 24 24 21 17
60 71 77 76 76 77 78 75 73 76 78 71 111 118 119 118 119 123 123 127 137 127 117 116 111 100 100 105 111 100 86 69 66 59 56 49 46 39 36 31 30 24 20
66 68 68 72 79 86 85 77 71 67 75 80 81 104 125 125 119 119 127 114 121 132 131 125 121 121 114 111 105 106 96 79 74 64 52 55 50 41 35 31 29 23 20
77 68 62 70 71 72 80 78 72 73 74 78 86 96 94 127 127 126 114 125 120 115 133 135 139 138 125 116 108 111 104 82 83 66 67 61 50 44 37 31 29 26 19
69 77 87 80 79 79 75 77 81 82 78 77 78 81 91 94 128 133 124 125 122 118 127 131 143 142 128 117 115 108 103 79 72 64 63 64 51 49 40 37 32 26 23
81 81 78 81 84 89 84 86 87 77 77 77 76 77 77 87 97 114 122 130 135 134 121 126 136 131 119 114 112 105 99 85 83 73 65 70 50 52 42 38 30 27 25
81 81 83 78 78 84 84 81 75 71 72 77 80 78 71 73 88 103 119 119 118 116 112 125 129 113 106 108 114 101 91 92 92 69 78 64 53 54 40 36 33 30 28
Wind_Direction_850mb
165 166 188 172 167 160 157 155 150 177 181 174 174 186 161 108 66 37 63 74 68 62 54 59 55 56 57 57 55 56 58 58 63 63 64 63 67 66 62 55 48 38 17
193 194 190 195 179 174 176 174 168 189 184 165 173 179 211 202 314 19 52 73 69 65 61 59 53 58 52 54 50 54 55 56 56 56 63 67 70 76 66 64 65 61 50
199 194 185 200 195 184 197 187 174 176 206 190 216 224 238 241 254 280 346 91 91 84 68 61 51 48 48 59 52 52 47 48 52 50 57 66 66 65 71 77 66 60 51
219 214 193 192 194 193 198 195 183 192 208 224 225 237 238 230 239 246 244 190 134 100 64 51 58 46 42 52 49 51 46 48 56 55 60 65 70 77 76 70 67 60 53
223 225 217 214 212 211 212 214 191 205 216 213 240 249 229 238 242 238 230 218 220 188 106 48 36 32 17 18 30 37 38 35 38 47 60 71 74 75 78 76 66 58 54
220 234 241 234 229 220 217 221 215 222 224 220 232 242 229 221 229 255 248 233 232 238 235 266 283 211 352 360 2 22 20 18 22 34 64 82 83 83 81 71 58 51 47
228 232 238 242 228 232 224 225 227 221 218 219 215 215 218 226 231 236 244 237 242 245 238 239 263 273 278 305 328 356 8 8 15 30 78 92 88 89 78 62 51 47 38
230 236 237 239 233 235 236 233 229 220 220 221 214 204 192 213 229 230 232 231 242 239 242 235 244 247 276 291 300 325 349 356 2 26 140 120 99 73 62 61 54 39 30
235 240 244 243 246 242 244 243 239 232 223 220 221 213 194 212 217 226 232 230 231 233 236 241 237 238 254 276 280 302 325 339 336 308 252 132 81 79 61 60 48 34 30
234 238 243 246 246 249 248 245 245 244 233 228 222 225 233 232 200 207 227 228 231 238 236 241 238 235 241 267 267 274 299 310 312 266 233 208 208 180 89 56 47 41 29
241 243 246 245 246 247 252 251 247 245 239 231 231 229 228 234 233 215 213 217 223 232 242 241 244 238 235 246 257 264 287 291 299 265 239 218 212 198 169 83 54 33 25
254 250 250 251 250 245 253 256 255 253 251 241 238 237 236 232 234 233 226 224 223 243 232 232 238 240 240 244 249 251 263 271 283 256 234 221 207 199 162 84 45 25 16
260 256 253 254 254 251 253 259 259 259 254 251 244 243 242 243 242 241 232 223 223 231 229 230 232 238 238 239 243 254 254 260 270 248 230 219 207 197 166 89 18 10 13
265 264 264 262 259 257 255 255 257 260 260 258 253 248 249 247 244 239 241 229 227 221 226 228 227 230 233 237 244 249 249 253 263 249 228 215 205 197 192 221 327 1 10
275 271 269 264 265 265 259 256 255 258 261 260 259 254 248 250 249 245 244 242 232 227 225 225 228 228 229 232 235 240 245 250 256 243 224 208 200 197 203 216 233 32 38
298 285 271 268 270 266 264 262 260 256 256 259 260 258 254 247 248 247 243 243 243 241 229 234 231 234 229 228 230 238 240 244 248 235 222 209 200 198 204 206 157 80 51
297 289 289 280 269 271 272 265 262 261 257 257 261 258 258 261 256 249 246 240 238 239 233 233 232 232 227 225 222 230 231 240 243 227 216 206 201 198 200 204 169 78 38
304 300 296 290 282 277 276 278 271 268 264 260 257 259 255 243 252 250 248 242 238 238 238 233 230 227 223 225 225 229 230 233 236 226 214 205 203 199 199 207 182 88 28
305 302 301 302 299 292 280 272 275 273 271 268 264 262 260 251 245 249 247 244 240 236 236 231 233 230 222 217 219 223 229 230 230 221 216 212 207 202 214 226 243 275 299
301 302 303 305 306 305 302 294 287 282 279 267 263 265 264 259 258 251 246 239 239 235 230 229 233 230 223 219 217 218 216 221 226 220 211 212 215 217 218 233 253 263 268
292 296 299 300 301 305 308 307 298 288 285 286 264 264 265 264 262 259 251 243 237 234 227 224 227 223 217 212 211 215 219 223 225 218 216 219 216 219 221 230 244 255 264
288 288 288 292 296 300 304 306 299 294 286 289 281 264 259 258 263 260 257 250 246 234 225 219 221 221 223 220 213 215 213 213 214 214 209 224 223 224 225 234 236 250 263
288 289 291 287 290 294 298 301 304 302 294 289 284 278 272 255 259 260 258 249 240 239 232 229 221 224 225 222 218 213 213 217 218 212 210 214 217 227 235 236 235 245 265
308 300 286 288 290 287 293 304 305 301 296 291 291 282 275 269 254 253 256 248 240 236 230 225 231 230 230 230 228 233 220 222 216 207 218 210 213 228 240 234 242 241 262
310 309 303 293 282 284 289 296 302 298 296 296 296 290 281 271 264 249 249 244 241 235 230 230 227 228 230 234 229 216 208 206 196 197 197 217 213 225 228 230 241 242 251
308 309 305 301 292 288 290 294 296 297 296 300 299 299 285 280 268 259 240 232 235 234 229 222 219 220 221 228 229 229 218 201 189 193 210 213 214 211 215 226 231 241 251